EW9355 Weather Reports


time (UTC)temp
F
wind
direction
speed
knots
gust
knots
rain 1hr
in
rain 24hr
in
rain mn
in
humidity
%
barometer
mb
20260505223041 91 272 0.9 5.2 0.00 0.00 0.00 52 1000.4
20260505221533 91 188 0.0 7.0 0.00 0.00 0.00 50 1000.4
20260505220039 92 275 0.0 7.0 0.00 0.00 0.00 51 1000.4
20260505214547 92 242 0.0 3.5 0.00 0.00 0.00 52 1000.5
20260505213040 91 254 0.9 7.8 0.00 0.00 0.00 52 1000.7
20260505211524 91 237 2.6 10.4 0.00 0.00 0.00 53 1000.9
20260505210023 90 254 1.7 7.8 0.00 0.00 0.00 55 1000.9
20260505204527 90 248 1.7 9.6 0.00 0.00 0.00 53 1001.2
20260505203019 90 144 0.9 8.7 0.00 0.00 0.00 55 1001.2
20260505201517 89 242 3.5 9.6 0.00 0.00 0.00 56 1001.4
20260505200012 89 254 1.7 11.3 0.00 0.00 0.00 58 1001.5
20260505194510 88 261 1.7 7.8 0.00 0.00 0.00 59 1001.7
20260505193019 87 161 0.9 7.0 0.00 0.00 0.00 61 1001.7
20260505191502 86 229 0.9 7.0 0.00 0.00 0.00 64 1001.7
20260505190119 85 157 0.9 7.0 0.00 0.00 0.00 64 1001.8
20260505184607 84 248 0.9 7.0 0.00 0.00 0.00 67 1002.0
20260505183055 84 242 0.0 8.7 0.00 0.00 0.00 66 1002.1
20260505181552 83 255 0.9 3.5 0.00 0.00 0.00 66 1002.2
20260505180051 83 79 0.9 7.0 0.00 0.00 0.00 68 1002.2
20260505174548 83 178 0.9 7.0 0.00 0.00 0.00 67 1002.3
20260505173046 82 236 0.9 7.0 0.00 0.00 0.00 68 1002.2
20260505171543 81 239 0.0 6.1 0.00 0.00 0.00 71 1002.2
20260505170039 80 244 0.9 6.1 0.00 0.00 0.00 71 1002.3
20260505164539 80 268 0.0 3.5 0.00 0.00 0.00 71 1002.3
20260505163036 80 279 0.0 7.0 0.00 0.00 0.00 72 1002.3
20260505161535 79 271 1.7 11.3 0.00 0.00 0.00 72 1002.2
20260505153031 78 252 0.9 10.4 0.00 0.00 0.00 75 1002.1
20260505151524 77 235 0.9 7.8 0.00 0.00 0.00 76 1002.4
20260505124505 72 101 0.0 3.5 0.00 0.00 0.00 84 1001.9
20260505123004 71 146 0.9 6.1 0.00 0.00 0.00 84 1001.7
20260505121504 71 131 1.7 7.8 0.00 0.00 0.00 84 1001.5
20260505120101 71 254 0.0 5.2 0.00 0.00 0.00 85 1001.5
20260505114605 71 140 0.0 7.0 0.00 0.00 0.00 85 1001.3
20260505113100 71 262 0.0 7.0 0.00 0.00 0.00 84 1001.3
20260505111602 71 268 0.9 7.0 0.00 0.00 0.00 84 1001.3
20260505101555 71 140 0.0 6.1 0.00 0.00 0.00 84 1001.2
20260505100101 71 128 0.0 3.5 0.00 0.00 0.00 84 1001.4
20260505094553 71 92 0.0 7.0 0.00 0.00 0.00 84 1001.6
20260505093051 71 159 0.0 4.3 0.00 0.00 0.00 84 1001.6
20260505091551 71 128 0.0 7.8 0.00 0.00 0.00 84 1001.7
20260505090100 71 275 0.0 7.0 0.00 0.00 0.00 84 1001.7
20260505084548 71 200 0.9 8.7 0.00 0.00 0.00 84 1001.8
20260505083052 71 234 0.9 7.8 0.00 0.00 0.00 84 1001.8
20260505081549 71 188 0.0 3.5 0.00 0.00 0.00 83 1002.0
20260505080054 71 144 0.0 6.1 0.00 0.00 0.00 83 1001.9
20260505074542 71 221 0.0 7.0 0.00 0.00 0.00 82 1002.2
20260505073052 71 154 0.9 5.2 0.00 0.00 0.00 82 1002.5
20260505071537 71 116 0.0 3.5 0.00 0.00 0.00 81 1002.7
20260505070035 72 174 0.0 6.1 0.00 0.00 0.00 81 1002.9
20260505064533 72 141 0.0 8.7 0.00 0.00 0.00 80 1002.9
20260505063035 72 173 0.0 9.6 0.00 0.00 0.00 80 1003.0
20260505061531 72 274 0.0 4.3 0.00 0.00 0.00 79 1003.0
20260505060034 72 144 0.0 4.3 0.00 0.00 0.00 78 1003.1
20260505054530 72 148 0.9 7.8 0.00 0.00 0.00 78 1003.1
20260505053028 72 130 0.0 4.3 0.00 0.00 0.00 77 1003.2
20260505051526 73 135 0.0 5.2 0.00 0.00 0.00 76 1003.4
20260505041538 74 126 0.9 7.8 0.00 0.00 0.00 73 1003.7
20260505040022 74 155 0.0 5.2 0.00 0.00 0.00 73 1003.9
20260505034521 74 98 0.9 3.5 0.00 0.00 0.00 73 1003.6
20260505033021 74 137 0.0 3.5 0.00 0.00 0.00 72 1003.5
20260505031520 74 126 0.0 6.1 0.00 0.00 0.00 71 1003.6
20260505030021 75 140 0.0 7.0 0.00 0.00 0.00 70 1003.7
20260505024522 75 146 0.0 7.8 0.00 0.00 0.00 70 1003.6
20260505023019 75 119 0.0 4.3 0.00 0.00 0.00 70 1003.6
20260505021523 75 154 0.0 5.2 0.00 0.00 0.00 69 1003.5
20260505020019 75 128 0.0 6.1 0.00 0.00 0.00 69 1003.3
20260505014518 76 156 0.0 3.5 0.00 0.00 0.00 68 1003.5
20260505013020 76 147 0.0 2.6 0.00 0.00 0.00 67 1003.5
20260505011524 76 147 0.0 6.1 0.00 0.00 0.00 66 1003.4
20260505010015 77 215 0.0 2.6 0.00 0.00 0.00 65 1003.4
20260505004529 77 128 0.0 3.5 0.00 0.00 0.00 64 1003.5
20260505003014 78 128 0.0 5.2 0.00 0.00 0.00 63 1003.5
20260505001513 79 143 0.0 8.7 0.00 0.00 0.00 62 1003.8
20260505000021 79 194 0.0 10.4 0.00 0.00 0.00 61 1003.6
20260504234510 79 232 0.9 11.3 0.00 0.00 0.00 60 1003.9
20260504233010 79 129 0.0 8.7 0.00 0.00 0.00 61 1003.9
20260504231508 80 131 0.9 8.7 0.00 0.00 0.00 59 1004.0
20260504230014 81 146 1.7 8.7 0.00 0.00 0.00 57 1004.2
20260504224506 81 136 0.9 8.7 0.00 0.00 0.00 58 1004.4